Regional Weather Roundup
Issued by NWS

Home | Current Version | Previous Version | Graphics & Text | Print | Product List | Glossary On
Versions: 1 2 3 4 5 6 7 8 9 10 11 12 13 14 15 16 17 18 19 20 21 22 23 24 25 26 27 28 29 30 31 32 33 34 35 36 37 38 39 40 41 42 43 44 45 46 47 48 49 50
565
ASUS44 KJAN 241303
RWRMS

MISSISSIPPI HOURLY WEATHER ROUNDUP
NATIONAL WEATHER SERVICE JACKSON MS
700 AM CST SAT JAN 24 2015

NOTE: "FAIR: INDICATES FEW OR NO CLOUDS BELOW 12,000 FEET WITH NO
SIGNIFICANT WEATHER AND/OR OBSTRUCTIONS TO VISIBILITY.

MSZ001>002-007>008-010>013-018>021-025>028-034>036-241400-
NORTHWEST MISSISSIPPI

CITY           SKY/WX    TMP DP  RH WIND       PRES   REMARKS
CLARKSDALE     FAIR      32  32 100 CALM      30.07R
CLEVELAND      FAIR      32  32 100 SW5       30.08R WCI  27
GREENWOOD      PTCLDY    28  27  96 S5        30.08R FOG     WCI  23
GREENVILLE     CLEAR     31  28  89 W8        30.09R WCI  23
GRENADA        FOG       28  28 100 CALM      30.08R VSB 1/4
OLIVE BRANCH   CLEAR     28  28 100 SW6       30.03R FOG     WCI  22
OXFORD         FAIR      27  25  93 SW3       30.06R FOG
TUNICA         SUNNY     30  28  93 SW3       30.06R
$$

MSZ003>006-009-014>017-022>024-029>033-037>039-241400-
NORTHEAST MISSISSIPPI

CITY           SKY/WX    TMP DP  RH WIND       PRES   REMARKS
COLUMBUS AFB   FOG       29  29  98 NW1       30.05R VSB 1/4
CORINTH        CLOUDY    32  30  93 CALM      30.02R FOG
GOLDN TRIANGLE CLEAR     30  28  93 W7        30.03S FOG     WCI  23
STARKVILLE       N/A     30  30 100 CALM      30.05R FOG
TUPELO         FOG       31  28  89 CALM      30.03S VSB 3/4
$$

MSZ040-058-241400-
CENTRAL MISSISSIPPI

CITY           SKY/WX    TMP DP  RH WIND       PRES   REMARKS
JACKSON INTL   PTCLDY    33  32  96 W5        30.10R FOG     WCI  29
JACKSON HAWKNS PTCLDY    33  31  92 W7        30.11R FOG     WCI  27
MERIDIAN KEY   CLEAR     31  30  96 SW3       30.08R FOG
MERIDIAN NAS   CLEAR     31  30  96 NW5       30.05S FOG     WCI  26
RAYMOND        FAIR      32  27  80 MISG      30.12R FOG
VICKSBURG      CLEAR     31  29  92 W3        30.14R
$$

MSZ059>079-241400-
SOUTH MISSISSIPPI

CITY           SKY/WX    TMP DP  RH WIND       PRES   REMARKS
BROOKHAVEN     CLOUDY    36  36 100 W7        30.15R WCI  30
HATTIESBURG    CLEAR     35  33  92 CALM      30.13R
MCCOMB         CLOUDY    36  34  92 W6        30.15R WCI  31
NATCHEZ        CLEAR     34  30  86 SW3       30.16S
PINE BELT      CLOUDY    34  30  86 W3        30.11R
$$

MSZ080>082-241400-
COASTAL MISSISSIPPI

CITY           SKY/WX    TMP DP  RH WIND       PRES   REMARKS
BAY ST LOUIS   MOCLDY    36  32  87 W6        30.18  WCI  31
BILOXI         CLEAR     38  36  93 NW8       30.15R WCI  32
PASCAGOULA     CLEAR     36  34  92 W5        30.13R WCI  32
GULFPORT       CLEAR     36  34  92 W8        30.15R WCI  30
$$



USA.gov is the U.S. government's official web portal to all federal, state and local government web resources and services.